Simultaneous Nadir Overpasses (SNOs) Predictions

Prediction of SNOs between NOAA-20 and LANDSAT-8 Satellite Orbit:

Table of predicted SNOs for the next 14.0 days since TLE Epoch: 11/16/2019
Index Date (NOAA-20) Time (NOAA-20) Lat,Lon (NOAA-20) SZA (NOAA-20 ) Date (LANDSAT-8) Time (LANDSAT-8) Lat,Lon (LANDSAT-8) SZA (LANDSAT-8 ) Distance(km) Time Diff (sec)
1 11/16/2019 07:22:45 70.05, 65.57 88.63 11/16/2019 07:23:28 70.06, 65.61 88.63 1.40 43
2 11/16/2019 08:13:26 -69.92,-126.90 91.50 11/16/2019 08:12:58 -69.94,-126.92 91.48 2.92 28
3 11/18/2019 22:49:10 -70.89, 12.70 89.89 11/18/2019 22:50:17 -70.83, 14.99 89.95 83.84 67
4 11/18/2019 23:39:40 70.04,-178.63 89.26 11/18/2019 23:39:57 70.02,-178.56 89.24 3.28 17
5 11/19/2019 00:30:21 -69.90, -11.10 90.87 11/19/2019 00:29:27 -69.91, -11.08 90.86 1.45 54
6 11/21/2019 15:05:50 -70.09, 129.75 90.09 11/21/2019 15:06:59 -70.09, 129.77 90.09 0.73 69
7 11/21/2019 15:56:34 69.97, -62.76 89.81 11/21/2019 15:56:26 69.98, -62.74 89.81 1.15 8
8 11/21/2019 16:47:12 -69.67, 105.00 90.49 11/21/2019 16:45:59 -69.71, 104.52 90.46 19.11 73
9 11/24/2019 07:22:43 -70.02,-114.37 89.59 11/24/2019 07:23:27 -70.04,-114.41 89.57 2.63 44
10 11/24/2019 08:13:27 69.91, 53.11 90.31 11/24/2019 08:12:54 69.93, 53.08 90.33 2.94 33
11 11/26/2019 22:49:08 70.74,-167.05 91.66 11/26/2019 22:50:16 70.65,-165.28 91.56 65.88 68
12 11/26/2019 23:39:38 -70.01, 1.41 89.07 11/26/2019 23:39:56 -70.00, 1.41 89.09 1.84 18
13 11/27/2019 00:30:22 69.90, 168.89 90.82 11/27/2019 00:29:23 69.88, 168.89 90.80 2.04 59
14 11/29/2019 15:05:51 70.10, -50.26 91.49 11/29/2019 15:06:54 70.10, -50.20 91.48 2.57 63
15 11/29/2019 15:56:32 -69.95, 117.28 88.66 11/29/2019 15:56:25 -69.94, 117.22 88.67 2.44 7
16 11/29/2019 16:47:09 69.47, -74.70 90.86 11/29/2019 16:45:58 69.49, -75.75 90.89 41.06 71




NCC Satellite Simultaneous Nadir Overpasses (SNOs) Prediction Service
